GW1722 Weather Reports


Display with metric or nautical units.
time (UTC)temp
F
wind
direction
speed
MPH
gust
MPH
rain 1hr
in
rain 24hr
in
rain mn
in
humidity
%
barometer
mb
20260505101921 37 326 0.0 0.0 0.00 0.00 0.00 74 1003.1
20260505101415 38 325 0.0 0.0 0.00 0.00 0.00 74 1002.6
20260505100911 38 332 0.0 0.0 0.00 0.00 0.00 73 1002.7
20260505100408 38 320 0.0 0.0 0.00 0.00 0.00 71 1002.4
20260505095903 38 329 0.0 0.0 0.00 0.00 0.00 71 1002.4
20260505095401 38 343 0.0 0.0 0.00 0.00 0.00 71 1002.3
20260505094857 38 324 0.0 0.0 0.00 0.00 0.00 71 1002.4
20260505094354 39 317 0.0 0.0 0.00 0.00 0.00 70 1002.3
20260505093849 39 347 0.0 0.0 0.00 0.00 0.00 70 1002.2
20260505093347 39 331 0.0 0.0 0.00 0.00 0.00 70 1002.3
20260505092844 39 323 0.0 0.0 0.00 0.00 0.00 70 1002.1
20260505092342 39 350 0.0 0.0 0.00 0.00 0.00 69 1002.2
20260505091839 39 338 0.0 0.0 0.00 0.00 0.00 70 1002.1
20260505091337 39 316 0.0 0.0 0.00 0.00 0.00 69 1002.3
20260505090835 39 326 0.0 0.0 0.00 0.00 0.00 69 1001.9
20260505090333 40 334 0.0 0.0 0.00 0.00 0.00 68 1001.9
20260505085830 40 336 0.0 0.0 0.00 0.00 0.00 69 1002.1
20260505085328 40 332 0.0 0.0 0.00 0.00 0.00 69 1002.0
20260505084825 40 353 0.0 0.0 0.00 0.00 0.00 69 1001.8
20260505084324 40 326 0.0 0.0 0.00 0.00 0.00 70 1001.8
20260505083820 40 344 0.0 0.0 0.00 0.00 0.00 70 1001.9
20260505083318 40 326 0.0 0.0 0.00 0.00 0.00 69 1001.9
20260505082814 40 341 0.0 0.0 0.00 0.00 0.00 69 1001.7
20260505082311 40 333 0.0 0.0 0.00 0.00 0.00 69 1001.8
20260505081807 40 3 0.0 0.0 0.00 0.00 0.00 68 1001.8
20260505081304 41 340 0.0 0.0 0.00 0.00 0.00 67 1001.6
20260505080801 40 322 0.0 0.0 0.00 0.00 0.00 68 1001.6
20260505080256 41 314 0.0 0.0 0.00 0.00 0.00 67 1001.5
20260505075752 41 331 0.0 0.0 0.00 0.00 0.00 67 1001.3
20260505075250 41 310 0.0 0.0 0.00 0.00 0.00 66 1001.6
20260505074747 41 333 0.0 0.0 0.00 0.00 0.00 66 1001.3
20260505074244 41 293 0.0 0.0 0.00 0.00 0.00 65 1001.5
20260505073741 41 329 0.0 0.0 0.00 0.00 0.00 65 1001.5
20260505073239 41 342 0.0 0.0 0.00 0.00 0.00 65 1001.3
20260505072735 41 292 0.0 0.0 0.00 0.00 0.00 67 1001.5
20260505072232 41 356 0.0 0.0 0.00 0.00 0.00 67 1001.2
20260505071727 39 357 0.0 0.0 0.00 0.00 0.00 69 1001.3
20260505071224 39 12 0.0 0.0 0.00 0.00 0.00 71 1001.1
20260505070722 39 292 0.0 0.0 0.00 0.00 0.00 70 1001.3
20260505070218 39 359 0.0 0.0 0.00 0.00 0.00 69 1001.3
20260505065714 40 311 0.0 0.0 0.00 0.00 0.00 68 1001.1
20260505065211 40 306 0.0 0.0 0.00 0.00 0.00 66 1001.3
20260505064708 41 295 0.0 0.0 0.00 0.00 0.00 67 1001.5
20260505064206 41 315 0.0 0.0 0.00 0.00 0.00 66 1001.3
20260505063703 41 349 0.0 0.0 0.00 0.00 0.00 66 1001.2
20260505063159 40 286 0.0 0.0 0.00 0.00 0.00 67 1001.2
20260505062655 39 266 0.0 0.0 0.00 0.00 0.00 69 1001.3
20260505062154 39 330 0.0 0.0 0.00 0.00 0.00 68 1001.1
20260505061650 39 314 0.0 0.0 0.00 0.00 0.00 69 1001.2
20260505061148 39 28 0.0 0.0 0.00 0.00 0.00 69 1001.2
20260505060645 39 274 0.0 0.0 0.00 0.00 0.00 68 1001.2
20260505060142 40 295 0.0 0.0 0.00 0.00 0.00 68 1000.9
20260505055637 39 340 0.0 0.0 0.00 0.00 0.00 69 1001.2
20260505055134 40 340 0.0 0.0 0.00 0.00 0.00 68 1001.1
20260505054632 39 325 0.0 0.0 0.00 0.00 0.00 69 1001.2
20260505054130 39 325 0.0 0.0 0.00 0.00 0.00 69 1001.1
20260505053627 40 325 0.0 0.0 0.00 0.00 0.00 68 1001.0
20260505053123 40 331 0.0 0.0 0.00 0.00 0.00 68 1001.0
20260505052620 39 305 0.0 0.0 0.00 0.00 0.00 70 1001.0
20260505052118 39 305 0.0 0.0 0.00 0.00 0.00 69 1001.0
20260505051614 39 269 0.0 0.0 0.00 0.00 0.00 69 1000.7
20260505051112 39 276 0.0 0.0 0.00 0.00 0.00 69 1000.7
20260505050610 40 276 0.0 0.0 0.00 0.00 0.00 68 1000.6
20260505050108 39 36 0.0 0.0 0.00 0.00 0.00 67 1000.4
20260505041538 43 271 0.0 0.0 0.00 0.00 0.00 61 999.7
20260505041035 44 20 0.0 0.0 0.00 0.00 0.00 60 999.5
20260505040532 44 356 0.0 0.0 0.00 0.00 0.00 59 999.6
20260505040030 43 355 0.0 0.0 0.00 0.00 0.00 60 999.4
20260505035525 43 324 0.0 0.0 0.00 0.00 0.00 59 999.4
20260505035022 44 251 0.0 0.0 0.00 0.00 0.00 59 999.3
20260505034519 44 316 0.0 0.0 0.00 0.00 0.00 57 999.4
20260505034016 44 298 0.0 0.0 0.00 0.00 0.00 57 999.1
20260505033513 45 10 0.0 0.0 0.00 0.00 0.00 56 999.2
20260505033011 44 285 0.0 0.0 0.00 0.00 0.00 57 999.3
20260505032508 45 293 0.0 0.0 0.00 0.00 0.00 57 999.2
20260505032004 45 257 0.0 0.0 0.00 0.00 0.00 58 999.3
20260505031501 45 328 0.0 0.0 0.00 0.00 0.00 56 999.2
20260505030958 46 280 0.0 0.0 0.00 0.00 0.00 55 999.0
20260505030455 46 347 0.0 0.0 0.00 0.00 0.00 55 999.1
20260505025949 46 304 0.0 0.0 0.00 0.00 0.00 55 998.8
20260505025447 47 335 0.0 0.0 0.00 0.00 0.00 54 998.9
20260505024946 46 333 0.0 0.0 0.00 0.00 0.00 55 998.8
20260505024443 46 323 0.0 0.0 0.00 0.00 0.00 55 998.9
20260505023940 47 348 0.0 0.0 0.00 0.00 0.00 56 998.8
20260505023437 47 342 0.0 0.0 0.00 0.00 0.00 55 998.6
20260505022934 47 6 0.0 0.0 0.00 0.00 0.00 55 998.6
20260505022432 47 318 0.0 0.0 0.00 0.00 0.00 55 998.4
20260505021929 48 330 0.0 0.0 0.00 0.00 0.00 54 998.3
20260505021425 48 352 0.0 0.0 0.00 0.00 0.00 54 998.1
20260505020921 48 326 0.0 0.0 0.00 0.00 0.00 55 998.3
20260505020416 49 307 0.0 0.0 0.00 0.00 0.00 54 997.8
20260505015913 48 321 0.0 0.0 0.00 0.00 0.00 55 997.8
20260505015411 49 323 0.0 0.0 0.00 0.00 0.00 54 997.6
20260505014908 49 315 0.0 0.0 0.00 0.00 0.00 54 997.3
20260505014405 50 318 0.0 0.0 0.00 0.00 0.00 53 997.5
20260505013901 50 284 0.0 0.0 0.00 0.00 0.00 52 997.5
20260505013358 51 308 0.0 0.0 0.00 0.00 0.00 52 997.0
20260505012857 51 290 0.0 0.0 0.00 0.00 0.00 51 997.0
20260505012354 51 334 0.0 2.0 0.00 0.00 0.00 53 996.9
20260505011850 52 24 0.0 1.0 0.00 0.00 0.00 52 996.7
20260505011347 52 329 0.0 0.0 0.00 0.00 0.00 53 996.6
20260505010843 53 48 0.0 0.0 0.00 0.00 0.00 52 996.5
20260505010339 53 310 0.0 0.0 0.00 0.00 0.00 51 996.4
20260505005836 53 0 0.0 0.0 0.00 0.00 0.00 51 996.3
20260505005332 54 294 0.0 0.0 0.00 0.00 0.00 50 996.0
20260505004831 55 351 0.0 0.0 0.00 0.00 0.00 50 996.1
20260505004326 55 359 0.0 0.0 0.00 0.00 0.00 51 996.0
20260505003824 55 313 0.0 0.0 0.00 0.00 0.00 50 995.7
20260505003321 56 288 0.0 0.0 0.00 0.00 0.00 49 995.8
20260505002816 56 310 0.0 0.0 0.00 0.00 0.00 50 995.6
20260505002314 57 279 0.0 0.0 0.00 0.00 0.00 50 995.5
20260505001812 57 343 0.0 0.0 0.00 0.00 0.00 51 995.3
20260505001309 58 316 0.0 0.0 0.00 0.00 0.00 50 995.2
20260505000806 57 2 0.0 0.0 0.00 0.00 0.00 51 995.1
20260505000304 58 335 0.0 0.0 0.00 0.00 0.00 50 994.9
20260504235800 58 254 0.0 0.0 0.00 0.00 0.00 50 994.9
20260504235256 59 333 0.0 0.0 0.00 0.00 0.00 49 994.9
20260504234754 59 344 0.0 0.0 0.00 0.00 0.00 49 994.8
20260504234251 60 358 0.0 0.0 0.00 0.00 0.00 48 994.8
20260504233747 60 348 0.0 0.0 0.00 0.00 0.00 48 994.8
20260504233243 60 89 0.0 0.0 0.00 0.00 0.00 48 994.3
20260504232740 61 319 0.0 0.0 0.00 0.00 0.00 48 994.3
20260504232237 61 344 0.0 0.0 0.00 0.00 0.00 48 994.3
20260504231734 62 20 0.0 0.0 0.00 0.00 0.00 47 994.0
20260504231231 62 338 1.0 5.0 0.00 0.00 0.00 46 994.2
20260504230726 62 344 0.0 0.0 0.00 0.00 0.00 46 994.0
20260504230225 63 340 2.0 5.0 0.00 0.00 0.00 44 993.8
20260504225724 63 6 0.0 0.0 0.00 0.00 0.00 43 993.6
20260504225220 64 280 0.0 0.0 0.00 0.00 0.00 42 993.7
20260504224717 64 341 0.0 0.0 0.00 0.00 0.00 42 993.7
20260504224214 65 336 1.0 5.0 0.00 0.00 0.00 42 993.6
20260504223710 65 347 0.0 0.0 0.00 0.00 0.00 41 993.4
20260504223206 65 308 0.0 0.0 0.00 0.00 0.00 39 993.3
20260504222703 66 241 0.0 0.0 0.00 0.00 0.00 38 993.3
20260504222200 66 223 0.0 1.0 0.00 0.00 0.00 39 993.1
20260504221657 66 137 0.0 0.0 0.00 0.00 0.00 40 993.2
20260504221155 66 19 0.0 0.0 0.00 0.00 0.00 39 992.9
20260504220650 65 294 0.0 0.0 0.00 0.00 0.00 40 992.8
20260504220149 65 292 0.0 0.0 0.00 0.00 0.00 40 993.0
20260504215644 66 224 1.0 6.0 0.00 0.00 0.00 39 993.1
20260504215142 67 219 0.0 0.0 0.00 0.00 0.00 41 992.7
20260504214637 66 333 0.0 0.0 0.00 0.00 0.00 39 992.8
20260504214134 65 299 0.0 0.0 0.00 0.00 0.00 39 992.7
20260504213631 65 258 0.0 0.0 0.00 0.00 0.00 40 992.6
20260504213128 66 229 0.0 0.0 0.00 0.00 0.00 38 992.9
20260504212624 66 231 0.0 0.0 0.00 0.00 0.00 38 992.5
20260504212121 66 260 0.0 0.0 0.00 0.00 0.00 39 992.7
20260504211619 66 232 0.0 0.0 0.00 0.00 0.00 37 992.7
20260504211114 65 254 0.0 0.0 0.00 0.00 0.00 39 992.8
20260504210613 65 354 0.0 0.0 0.00 0.00 0.00 40 992.5
20260504210109 65 354 0.0 0.0 0.00 0.00 0.00 41 992.4
20260504205606 65 303 0.0 0.0 0.00 0.00 0.00 43 992.4
20260504205104 65 331 0.0 0.0 0.00 0.00 0.00 43 992.5
20260504204602 66 206 0.0 0.0 0.00 0.00 0.00 43 992.3
20260504204101 66 332 0.0 0.0 0.00 0.00 0.00 45 992.4
20260504203559 66 17 0.0 1.0 0.00 0.00 0.00 47 992.3
20260504203056 66 2 0.0 0.0 0.00 0.00 0.00 47 992.6
20260504202551 66 25 1.0 2.0 0.00 0.00 0.00 46 992.0
20260504202048 67 286 0.0 0.0 0.00 0.00 0.00 46 992.4
20260504201545 67 309 0.0 0.0 0.00 0.00 0.00 46 992.2
20260504201043 68 202 1.0 3.0 0.00 0.00 0.00 45 992.2
20260504200539 68 219 0.0 0.0 0.00 0.00 0.00 44 992.0
20260504200036 68 221 0.0 0.0 0.00 0.00 0.00 45 992.1
20260504195532 67 39 0.0 0.0 0.00 0.00 0.00 48 992.1
20260504195029 66 342 0.0 1.0 0.00 0.00 0.00 47 992.2
20260504194525 66 17 0.0 0.0 0.00 0.00 0.00 48 992.3
20260504194021 67 326 0.0 0.0 0.00 0.00 0.00 46 992.1
20260504193518 66 313 0.0 0.0 0.00 0.00 0.00 46 992.2
20260504193017 67 356 0.0 0.0 0.00 0.00 0.00 46 992.3
20260504192514 67 343 0.0 0.0 0.00 0.00 0.00 47 991.9
20260504192012 66 350 2.0 6.0 0.00 0.00 0.00 48 992.0
20260504191510 67 343 0.0 0.0 0.00 0.00 0.00 46 992.2
20260504191006 69 223 0.0 0.0 0.00 0.00 0.00 46 991.9
20260504190502 68 335 0.0 0.0 0.00 0.00 0.00 45 992.0
20260504185958 69 338 0.0 0.0 0.00 0.00 0.00 45 991.9
20260504185455 69 208 0.0 0.0 0.00 0.00 0.00 45 991.7
20260504184952 70 259 0.0 0.0 0.00 0.00 0.00 44 991.7
20260504184447 70 229 0.0 0.0 0.00 0.00 0.00 46 991.4
20260504183943 70 314 0.0 0.0 0.00 0.00 0.00 45 991.4
20260504183440 69 229 0.0 0.0 0.00 0.00 0.00 43 991.7
20260504182938 69 199 0.0 0.0 0.00 0.00 0.00 43 991.5
20260504182435 69 226 0.0 0.0 0.00 0.00 0.00 44 991.4
20260504181932 69 308 0.0 0.0 0.00 0.00 0.00 45 991.6
20260504181429 68 313 0.0 0.0 0.00 0.00 0.00 46 991.1
20260504180928 69 179 1.0 2.0 0.00 0.00 0.00 43 991.6
20260504180426 67 27 0.0 0.0 0.00 0.00 0.00 47 991.7
20260504175924 68 341 3.0 7.0 0.00 0.00 0.00 46 991.5
20260504175421 68 86 0.0 0.0 0.00 0.00 0.00 47 991.5
20260504174918 68 268 0.0 0.0 0.00 0.00 0.00 45 991.6
20260504174416 66 291 0.0 0.0 0.00 0.00 0.00 47 991.6
20260504173913 66 323 0.0 0.0 0.00 0.00 0.00 48 991.7
20260504173409 64 336 0.0 0.0 0.00 0.00 0.00 51 991.8
20260504172907 65 258 0.0 0.0 0.00 0.00 0.00 50 991.9
20260504172403 63 339 0.0 0.0 0.00 0.00 0.00 52 992.0
20260504171859 62 181 0.0 0.0 0.00 0.00 0.00 53 992.1
20260504171356 63 22 0.0 0.0 0.00 0.00 0.00 53 992.0
20260504170854 64 325 0.0 0.0 0.00 0.00 0.00 51 991.9
20260504170350 64 353 0.0 0.0 0.00 0.00 0.00 52 992.1
20260504160309 66 243 0.0 0.0 0.00 0.00 0.00 49 991.1
20260504150734 64 274 0.0 0.0 0.00 0.00 0.00 46 991.0
20260504150230 62 151 4.0 5.0 0.00 0.00 0.00 48 991.0
20260504141200 59 208 1.0 6.0 0.00 0.00 0.00 53 991.7
20260504140656 59 245 0.0 0.0 0.00 0.00 0.00 53 992.0
20260504140152 59 237 0.0 0.0 0.00 0.00 0.00 53 992.3
20260504130620 52 193 0.0 0.0 0.00 0.00 0.00 71 993.6
20260504130117 51 174 0.0 0.0 0.00 0.00 0.00 74 993.5
20260504110509 44 188 0.0 0.0 0.00 0.00 0.00 90 995.9